Simultaneous Nadir Overpasses (SNOs) Predictions

Prediction of SNOs between GOES-14 and AQUA Satellite Orbit:

Table of predicted SNOs for the next 14.0 days since TLE Epoch: 6/18/2021
Index Date Time (GOES-14) GOES-14 Lat,Lon AQUA Lat,Lon Distance(km) Time Diff (sec)
1 06/19/2021 20:20:24 0.02,-104.33 0.74,-101.02 376.99 80
2 06/20/2021 08:38:59 -0.05,-104.10 0.41,-106.16 235.43 80
3 06/22/2021 08:29:28 -0.05,-104.10 -0.26,-103.21 100.87 80
4 06/22/2021 20:48:12 0.08,-104.33 -0.77,-108.42 464.44 80
5 06/24/2021 08:17:16 -0.05,-104.09 -0.87,-100.25 436.90 80
6 06/24/2021 20:36:00 0.08,-104.33 -0.16,-105.46 128.46 80
7 06/26/2021 20:26:28 0.08,-104.32 0.46,-102.50 207.67 80
8 06/27/2021 08:45:04 -0.11,-104.09 0.62,-107.66 405.05 80
9 06/29/2021 08:32:52 -0.10,-104.09 0.00,-104.70 68.24 80
10 07/01/2021 08:23:20 -0.10,-104.10 -0.62,-101.74 269.10 80
11 07/01/2021 20:42:04 0.12,-104.33 -0.46,-106.93 295.85 80
